GW7166 Weather Reports


Display with metric or nautical units.
time (UTC)temp
F
wind
direction
speed
MPH
gust
MPH
rain 1hr
in
rain 24hr
in
rain mn
in
humidity
%
barometer
mb
20260506231937 48 66 2.0 4.0 0.00 0.26 0.26 91 1011.2
20260506231436 48 93 2.0 4.0 0.00 0.26 0.26 92 1011.3
20260506230932 48 35 0.0 2.0 0.00 0.26 0.26 93 1011.4
20260506230428 48 131 3.0 6.0 0.00 0.26 0.26 92 1011.2
20260506225925 48 99 2.0 3.0 0.00 0.26 0.26 92 1011.1
20260506225422 48 158 0.0 3.0 0.00 0.26 0.26 92 1011.1
20260506224919 48 125 2.0 3.0 0.00 0.26 0.26 92 1011.2
20260506224417 48 262 0.0 3.0 0.00 0.26 0.26 92 1011.2
20260506223913 48 231 1.0 2.0 0.00 0.26 0.26 92 1010.9
20260506223408 48 132 0.0 2.0 0.00 0.26 0.26 92 1010.8
20260506222906 48 56 2.0 4.0 0.00 0.26 0.26 91 1010.8
20260506222402 48 43 2.0 4.0 0.00 0.26 0.26 91 1010.5
20260506221859 48 41 0.0 3.0 0.00 0.26 0.26 92 1010.6
20260506221356 48 74 2.0 5.0 0.00 0.26 0.26 92 1010.6
20260506220853 48 154 4.0 4.0 0.00 0.26 0.26 92 1010.3
20260506220349 49 69 3.0 6.0 0.00 0.26 0.26 93 1010.3
20260506215846 49 120 5.0 5.0 0.00 0.26 0.26 93 1010.2
20260506215342 49 93 2.0 6.0 0.02 0.26 0.26 93 1010.3
20260506214838 49 149 4.0 5.0 0.00 0.26 0.26 94 1009.9
20260506214335 49 150 2.0 2.0 0.00 0.26 0.26 93 1010.1
20260506213833 49 126 0.0 3.0 0.00 0.26 0.26 94 1010.0
20260506213330 49 149 2.0 2.0 0.00 0.26 0.26 93 1009.8
20260506212827 49 325 4.0 6.0 0.00 0.26 0.26 93 1009.7
20260506212323 50 339 1.0 3.0 0.00 0.26 0.26 93 1009.6
20260506211818 50 214 2.0 8.0 0.00 0.26 0.26 94 1009.4
20260506211315 50 201 2.0 4.0 0.02 0.26 0.26 94 1009.5
20260506210812 50 189 1.0 3.0 0.05 0.26 0.26 93 1009.2
20260506210308 50 240 0.0 2.0 0.02 0.25 0.25 93 1009.2
20260506205806 50 124 0.0 3.0 0.02 0.25 0.25 93 1009.0
20260506205305 50 276 1.0 3.0 0.02 0.25 0.25 93 1009.1
20260506204758 51 336 1.0 3.0 0.02 0.24 0.24 93 1009.0
20260506204256 51 130 3.0 4.0 0.05 0.24 0.24 93 1008.6
20260506203754 51 207 3.0 4.0 0.02 0.24 0.24 93 1008.5
20260506203250 51 91 1.0 3.0 0.02 0.24 0.24 93 1008.5
20260506202748 51 47 0.0 7.0 0.07 0.24 0.24 91 1008.5
20260506202244 52 358 2.0 8.0 0.05 0.23 0.23 91 1008.3
20260506201741 52 309 5.0 6.0 0.02 0.22 0.22 92 1008.4
20260506201238 53 0 1.0 4.0 0.02 0.22 0.22 92 1008.2
20260506200735 53 353 2.0 4.0 0.05 0.22 0.22 92 1008.0
20260506200232 54 306 3.0 3.0 0.05 0.22 0.22 91 1008.2
20260506195728 55 346 6.0 6.0 0.02 0.21 0.21 90 1007.8
20260506195224 56 285 3.0 6.0 0.00 0.21 0.21 88 1007.8
20260506194722 58 312 5.0 7.0 0.00 0.21 0.21 85 1007.5
20260506194218 60 298 5.0 6.0 0.00 0.21 0.21 84 1007.2
20260506193716 61 339 2.0 2.0 0.00 0.21 0.21 89 1007.1
20260506193213 61 190 2.0 3.0 0.00 0.21 0.21 87 1007.0
20260506192709 60 167 2.0 2.0 0.00 0.21 0.21 89 1007.1
20260506192206 60 141 3.0 3.0 0.00 0.21 0.21 91 1007.1
20260506191703 60 136 1.0 2.0 0.00 0.21 0.21 91 1007.0
20260506191159 60 144 2.0 3.0 0.00 0.21 0.21 91 1007.1
20260506190657 60 133 2.0 2.0 0.00 0.21 0.21 90 1007.2
20260506190153 60 177 2.0 3.0 0.00 0.21 0.21 90 1007.2
20260506185650 60 150 2.0 3.0 0.00 0.21 0.21 87 1007.2
20260506185146 60 145 2.0 3.0 0.00 0.21 0.21 88 1007.2
20260506184644 60 154 2.0 2.0 0.00 0.21 0.21 88 1007.3
20260506184141 61 185 2.0 4.0 0.00 0.21 0.21 86 1007.3
20260506183637 60 172 2.0 3.0 0.00 0.21 0.21 87 1007.4
20260506183133 60 180 3.0 4.0 0.00 0.21 0.21 88 1007.2
20260506182631 60 147 2.0 3.0 0.00 0.21 0.21 89 1007.5
20260506182128 60 181 2.0 3.0 0.00 0.21 0.21 88 1007.4
20260506181626 60 186 3.0 3.0 0.00 0.21 0.21 88 1007.3
20260506181123 60 165 2.0 6.0 0.00 0.21 0.21 87 1007.4
20260506180620 60 199 4.0 4.0 0.00 0.21 0.21 88 1007.3
20260506180116 60 189 2.0 4.0 0.00 0.21 0.21 88 1007.5
20260506175612 60 169 2.0 4.0 0.00 0.21 0.21 89 1007.6
20260506175108 60 159 2.0 2.0 0.00 0.21 0.21 90 1007.4
20260506174608 60 185 2.0 4.0 0.00 0.21 0.21 89 1007.4
20260506174103 60 156 2.0 5.0 0.00 0.21 0.21 88 1007.5
20260506173601 60 171 4.0 4.0 0.00 0.21 0.21 90 1007.4
20260506173058 60 170 2.0 3.0 0.00 0.21 0.21 91 1007.5
20260506172555 60 137 2.0 4.0 0.00 0.21 0.21 89 1007.6
20260506172051 60 159 2.0 4.0 0.00 0.21 0.21 90 1007.4
20260506171549 60 149 3.0 5.0 0.00 0.21 0.21 91 1007.6
20260506171047 59 146 2.0 4.0 0.00 0.21 0.21 91 1007.5
20260506170544 59 217 7.0 8.0 0.00 0.21 0.21 91 1007.4
20260506170041 59 193 3.0 6.0 0.00 0.21 0.21 92 1007.5
20260506165540 59 176 2.0 4.0 0.00 0.21 0.21 93 1007.2
20260506165035 59 171 2.0 5.0 0.00 0.21 0.21 93 1007.5
20260506164532 59 156 2.0 5.0 0.00 0.21 0.21 92 1007.7
20260506164030 59 184 3.0 5.0 0.00 0.21 0.21 92 1007.8
20260506163526 59 183 2.0 5.0 0.00 0.21 0.21 91 1007.8
20260506163021 59 143 2.0 4.0 0.00 0.21 0.21 91 1007.8
20260506162518 59 189 3.0 5.0 0.00 0.21 0.21 91 1007.8
20260506162015 59 223 4.0 4.0 0.00 0.21 0.21 92 1008.0
20260506161513 59 149 2.0 5.0 0.00 0.21 0.21 92 1007.8
20260506161009 59 207 1.0 6.0 0.00 0.21 0.21 90 1007.8
20260506160507 59 190 3.0 4.0 0.00 0.21 0.21 91 1008.0
20260506160004 59 197 3.0 4.0 0.00 0.21 0.21 91 1007.8
20260506155502 59 173 2.0 3.0 0.00 0.21 0.21 92 1007.8
20260506153628 59 164 2.0 5.0 0.05 0.20 0.20 91 1007.9
20260506153125 59 175 2.0 4.0 0.05 0.20 0.20 91 1007.9
20260506152622 58 196 5.0 8.0 0.07 0.20 0.20 91 1007.9
20260506152120 58 188 4.0 8.0 0.07 0.19 0.19 92 1007.9
20260506151619 58 164 2.0 4.0 0.02 0.18 0.18 92 1007.9
20260506151115 58 183 3.0 3.0 0.02 0.18 0.18 93 1007.8
20260506150612 58 197 4.0 4.0 0.02 0.18 0.18 92 1007.9
20260506150109 58 197 4.0 4.0 0.05 0.18 0.18 91 1007.8
20260506145606 58 190 3.0 5.0 0.02 0.17 0.17 91 1008.0
20260506145103 58 185 3.0 4.0 0.00 0.17 0.17 92 1007.8
20260506144559 58 186 3.0 4.0 0.00 0.17 0.17 92 1007.6
20260506144056 58 197 2.0 4.0 0.00 0.17 0.17 91 1007.9
20260506143554 58 145 6.0 8.0 0.00 0.17 0.17 92 1007.8
20260506143052 58 180 2.0 4.0 0.02 0.17 0.17 92 1007.9
20260506142549 57 147 2.0 5.0 0.02 0.17 0.17 93 1007.8
20260506142048 58 150 2.0 4.0 0.00 0.17 0.17 93 1008.2
20260506141545 57 183 3.0 4.0 0.00 0.17 0.17 92 1007.7
20260506141044 57 146 2.0 5.0 0.02 0.17 0.17 92 1007.9
20260506140541 57 161 2.0 5.0 0.05 0.17 0.17 93 1007.5
20260506140038 57 193 3.0 5.0 0.07 0.16 0.16 93 1007.8
20260506135535 56 126 2.0 3.0 0.12 0.16 0.16 93 1007.8
20260506135031 57 121 4.0 4.0 0.12 0.15 0.15 92 1007.8
20260506134527 56 146 2.0 3.0 0.09 0.14 0.14 92 1008.2
20260506134023 56 138 4.0 5.0 0.05 0.13 0.13 92 1008.4
20260506133521 56 171 2.0 4.0 0.07 0.12 0.12 92 1008.5
20260506133018 56 142 2.0 5.0 0.09 0.12 0.12 92 1008.2
20260506132515 57 164 0.0 2.0 0.09 0.11 0.11 91 1008.7
20260506132012 56 208 3.0 4.0 0.05 0.10 0.10 90 1008.6
20260506131509 56 135 2.0 3.0 0.07 0.09 0.09 91 1008.7
20260506131005 56 212 0.0 2.0 0.07 0.09 0.09 91 1008.9
20260506130502 56 139 3.0 5.0 0.07 0.08 0.08 90 1009.0
20260506125959 56 120 2.0 4.0 0.07 0.07 0.07 91 1008.9
20260506125458 56 230 2.0 3.0 0.09 0.07 0.07 93 1009.0
20260506124955 56 141 1.0 2.0 0.05 0.06 0.06 92 1009.1
20260506124453 56 107 2.0 3.0 0.02 0.05 0.05 92 1008.9
20260506123951 56 124 2.0 2.0 0.05 0.05 0.05 91 1009.0
20260506123449 56 184 0.0 3.0 0.02 0.04 0.04 91 1008.9
20260506122946 56 146 2.0 2.0 0.02 0.04 0.04 90 1008.5
20260506122442 56 112 1.0 2.0 0.02 0.04 0.04 89 1008.4
20260506121941 56 173 0.0 0.0 0.02 0.04 0.04 89 1008.3
20260506121438 56 120 0.0 2.0 0.02 0.04 0.04 90 1008.3
20260506120934 56 119 2.0 2.0 0.02 0.04 0.04 90 1008.4
20260506120432 56 58 0.0 1.0 0.00 0.03 0.03 91 1008.3
20260506115929 56 89 1.0 1.0 0.00 0.03 0.03 89 1008.5
20260506115427 56 80 0.0 1.0 0.02 0.03 0.03 88 1008.5
20260506114925 56 89 0.0 2.0 0.02 0.03 0.03 86 1008.5
20260506114422 56 134 1.0 2.0 0.00 0.03 0.03 86 1008.6
20260506113921 56 139 2.0 2.0 0.00 0.03 0.03 84 1008.6
20260506113418 56 97 1.0 2.0 0.02 0.03 0.03 87 1008.5
20260506112914 56 135 0.0 1.0 0.05 0.03 0.03 86 1008.5
20260506112413 56 118 1.0 1.0 0.05 0.02 0.02 86 1008.4
20260506111910 57 57 1.0 2.0 0.02 0.02 0.02 85 1008.5
20260506111408 57 104 0.0 2.0 0.02 0.02 0.02 84 1008.4
20260506110904 57 4 0.0 1.0 0.02 0.01 0.01 83 1008.6
20260506110402 57 99 2.0 2.0 0.05 0.01 0.01 81 1008.5
20260506105858 58 106 2.0 3.0 0.05 0.01 0.01 78 1008.5
20260506105355 59 128 5.0 5.0 0.00 0.00 0.00 74 1008.5
20260506104852 59 269 0.0 2.0 0.00 0.00 0.00 71 1008.5
20260506104350 59 213 2.0 3.0 0.00 0.00 0.00 71 1008.5
20260506103847 59 201 2.0 2.0 0.00 0.00 0.00 69 1008.5
20260506103345 60 202 0.0 2.0 0.00 0.00 0.00 68 1008.2
20260506102842 60 142 0.0 2.0 0.00 0.00 0.00 66 1008.0
20260506102340 61 149 4.0 4.0 0.00 0.00 0.00 61 1007.9
20260506101837 61 140 1.0 2.0 0.00 0.00 0.00 58 1007.9
20260506101333 62 66 0.0 1.0 0.00 0.00 0.00 57 1008.0
20260506100831 62 333 0.0 1.0 0.00 0.00 0.00 57 1008.0
20260506100329 61 309 0.0 1.0 0.00 0.00 0.00 58 1007.9
20260506095827 61 18 0.0 1.0 0.00 0.00 0.00 59 1007.6
20260506095324 61 109 1.0 1.0 0.00 0.00 0.00 60 1007.9
20260506094821 61 95 0.0 2.0 0.00 0.00 0.00 59 1008.0
20260506094319 61 141 2.0 2.0 0.00 0.00 0.00 58 1007.8
20260506093817 62 161 1.0 2.0 0.00 0.00 0.00 58 1008.0
20260506093314 62 205 1.0 2.0 0.00 0.00 0.00 57 1008.0
20260506092812 61 209 2.0 2.0 0.00 0.00 0.00 57 1007.7
20260506092309 62 174 1.0 2.0 0.00 0.00 0.00 57 1007.7
20260506091806 62 89 0.0 2.0 0.00 0.00 0.00 58 1007.6
20260506091304 61 142 0.0 2.0 0.00 0.00 0.00 59 1008.0
20260506090802 61 142 0.0 2.0 0.00 0.00 0.00 60 1007.8
20260506090258 61 121 1.0 2.0 0.00 0.00 0.00 60 1007.8
20260506085755 62 120 2.0 2.0 0.00 0.00 0.00 58 1007.7
20260506085251 62 164 2.0 3.0 0.00 0.00 0.00 55 1007.8
20260506084748 63 220 1.0 2.0 0.00 0.00 0.00 55 1007.7
20260506084244 63 141 0.0 2.0 0.00 0.00 0.00 55 1007.8
20260506083741 63 147 1.0 3.0 0.00 0.00 0.00 55 1007.7
20260506083239 62 188 2.0 3.0 0.00 0.00 0.00 55 1008.0
20260506082737 62 224 0.0 2.0 0.00 0.00 0.00 60 1007.9
20260506082231 62 190 0.0 3.0 0.00 0.00 0.00 58 1008.2
20260506081730 63 133 2.0 3.0 0.00 0.00 0.00 59 1008.0
20260506081227 63 206 2.0 4.0 0.00 0.00 0.00 55 1007.9
20260506080725 63 192 3.0 4.0 0.00 0.00 0.00 56 1007.9
20260506080221 62 198 2.0 3.0 0.00 0.00 0.00 58 1008.2
20260506073205 61 178 2.0 2.0 0.00 0.00 0.00 64 1007.9
20260506072702 60 157 2.0 3.0 0.00 0.00 0.00 66 1007.7
20260506072159 59 132 2.0 2.0 0.00 0.00 0.00 70 1008.3
20260506071657 59 154 2.0 2.0 0.00 0.00 0.00 72 1008.2
20260506071155 58 114 0.0 2.0 0.00 0.00 0.00 77 1008.3
20260506070651 58 127 1.0 2.0 0.00 0.00 0.00 77 1008.5
20260506070148 58 129 0.0 2.0 0.00 0.00 0.00 76 1008.3
20260506062126 59 124 3.0 3.0 0.00 0.00 0.00 70 1009.0
20260506061621 59 99 1.0 2.0 0.00 0.00 0.00 70 1008.9
20260506061119 60 120 2.0 2.0 0.00 0.00 0.00 69 1008.9
20260506060618 60 129 2.0 3.0 0.00 0.00 0.00 69 1008.9
20260506060114 60 124 2.0 3.0 0.00 0.00 0.00 68 1008.8
20260506051046 60 143 0.0 3.0 0.00 0.00 0.00 66 1009.6
20260506050544 61 109 1.0 3.0 0.00 0.00 0.00 66 1009.5
20260506045034 62 119 3.0 3.0 0.00 0.00 0.00 63 1009.6
20260506044532 63 32 0.0 3.0 0.00 0.00 0.00 62 1009.4
20260506044029 63 127 0.0 1.0 0.00 0.00 0.00 60 1009.4
20260506043526 63 139 0.0 1.0 0.00 0.00 0.00 60 1009.3
20260506043024 63 130 0.0 2.0 0.00 0.00 0.00 59 1009.1
20260506042523 63 9 0.0 2.0 0.00 0.00 0.00 61 1009.0
20260506042021 63 94 1.0 2.0 0.00 0.00 0.00 61 1009.1
20260506041519 63 118 2.0 3.0 0.00 0.00 0.00 60 1009.5
20260506041016 63 110 2.0 2.0 0.00 0.00 0.00 59 1009.3
20260506040514 63 101 2.0 2.0 0.00 0.00 0.00 60 1009.3
20260506040009 63 75 1.0 1.0 0.00 0.00 0.00 60 1009.3
20260506035506 63 95 1.0 1.0 0.00 0.00 0.00 60 1009.5
20260506035003 63 69 0.0 1.0 0.00 0.00 0.00 60 1009.4
20260506034501 63 50 0.0 1.0 0.00 0.00 0.00 60 1009.5
20260506033957 63 89 0.0 0.0 0.00 0.00 0.00 61 1009.3
20260506033455 63 108 2.0 2.0 0.00 0.00 0.00 61 1009.6
20260506032951 63 91 0.0 2.0 0.00 0.00 0.00 60 1009.4
20260506032449 63 110 2.0 3.0 0.00 0.00 0.00 60 1009.2
20260506031945 63 89 0.0 3.0 0.00 0.00 0.00 59 1009.4
20260506031443 64 136 2.0 2.0 0.00 0.00 0.00 58 1009.1
20260506030940 64 127 0.0 2.0 0.00 0.00 0.00 57 1009.3
20260506030438 64 116 2.0 2.0 0.00 0.00 0.00 56 1009.3
20260506025934 65 127 0.0 2.0 0.00 0.00 0.00 55 1009.4
20260506025431 65 137 1.0 1.0 0.00 0.00 0.00 54 1009.4
20260506024928 66 129 0.0 0.0 0.00 0.00 0.00 54 1009.2
20260506024425 66 154 1.0 1.0 0.00 0.00 0.00 53 1009.2
20260506023921 66 280 0.0 0.0 0.00 0.00 0.00 52 1009.5
20260506023418 67 224 0.0 0.0 0.00 0.00 0.00 51 1009.5
20260506022914 67 212 0.0 0.0 0.00 0.00 0.00 51 1009.4
20260506022412 67 235 0.0 0.0 0.00 0.00 0.00 51 1009.3
20260506021910 67 329 0.0 0.0 0.00 0.00 0.00 51 1009.4
20260506021407 67 230 0.0 0.0 0.00 0.00 0.00 51 1009.3
20260506020903 67 141 0.0 0.0 0.00 0.00 0.00 51 1009.2
20260506020402 68 182 0.0 2.0 0.00 0.00 0.00 50 1009.4
20260506015859 67 326 0.0 1.0 0.00 0.00 0.00 50 1009.2
20260506015356 68 147 1.0 1.0 0.00 0.00 0.00 49 1009.4
20260506014853 68 129 0.0 1.0 0.00 0.00 0.00 49 1009.4
20260506014350 68 225 0.0 1.0 0.00 0.00 0.00 48 1009.3
20260506013846 68 124 0.0 2.0 0.00 0.00 0.00 49 1009.3
20260506013344 68 174 0.0 1.0 0.00 0.00 0.00 48 1009.2
20260506012840 69 157 0.0 2.0 0.00 0.00 0.00 47 1009.1
20260506012337 69 199 0.0 0.0 0.00 0.00 0.00 46 1009.4
20260506011834 69 229 0.0 1.0 0.00 0.00 0.00 45 1009.1
20260506011331 70 248 0.0 1.0 0.00 0.00 0.00 45 1009.0
20260506010828 70 217 0.0 0.0 0.00 0.00 0.00 45 1008.9
20260506010326 69 286 0.0 0.0 0.00 0.00 0.00 45 1009.0
20260506005823 69 135 0.0 0.0 0.00 0.00 0.00 46 1008.6
20260506005320 70 129 0.0 1.0 0.00 0.00 0.00 45 1008.7
20260506004816 70 113 0.0 2.0 0.00 0.00 0.00 45 1008.6
20260506004314 70 137 0.0 0.0 0.00 0.00 0.00 44 1008.6
20260506003809 70 142 0.0 1.0 0.00 0.00 0.00 45 1008.7
20260506003306 71 157 0.0 0.0 0.00 0.00 0.00 44 1008.8
20260506002802 71 164 0.0 1.0 0.00 0.00 0.00 43 1008.5
20260506002259 72 117 0.0 1.0 0.00 0.00 0.00 42 1008.5
20260506001754 72 178 1.0 2.0 0.00 0.00 0.00 42 1008.5
20260506001252 72 173 0.0 2.0 0.00 0.00 0.00 42 1008.5
20260506000749 73 240 0.0 2.0 0.00 0.00 0.00 42 1008.6
20260506000247 73 278 1.0 2.0 0.00 0.00 0.00 41 1008.4
20260505235743 73 240 0.0 2.0 0.00 0.00 0.00 40 1008.3
20260505235241 73 217 0.0 2.0 0.00 0.00 0.00 40 1008.5
20260505234737 72 311 0.0 2.0 0.00 0.00 0.00 40 1008.3
20260505234235 72 332 1.0 3.0 0.00 0.00 0.00 41 1008.4
20260505233731 72 246 0.0 0.0 0.00 0.00 0.00 41 1008.5
20260505233230 72 164 0.0 0.0 0.00 0.00 0.00 41 1008.0
20260505232726 72 164 0.0 2.0 0.00 0.00 0.00 42 1008.2
20260505232224 72 165 0.0 1.0 0.00 0.00 0.00 41 1008.0